Temperature
20 18 18 19 18 19 19 19 18 19 19 18 17 17 17 17 17 16 17 17 18 18 19 18 18 18 18 17 17 17 17 17 16 16 16 16 16 16 15 15 15 15 15 15
18 18 19 20 19 19 19 19 18 19 19 18 17 17 16 16 16 16 17 17 17 18 18 18 18 18 17 17 17 17 17 17 16 16 16 16 16 15 15 15 15 15 15 15
19 20 20 20 20 19 19 19 19 19 19 18 18 17 17 16 16 16 16 17 17 17 17 18 18 18 17 17 17 17 17 16 16 16 16 16 15 15 15 15 15 15 15 15
19 20 20 20 20 20 19 20 19 19 18 17 18 16 16 16 15 15 16 16 16 17 17 17 17 17 17 17 17 17 16 16 16 16 16 16 16 15 15 15 15 15 15 15
19 20 20 20 20 20 19 19 19 18 18 17 16 16 15 15 15 15 15 15 16 16 16 17 17 17 17 17 17 16 16 16 16 16 16 15 15 15 15 15 15 15 15 15
19 20 20 20 20 20 19 18 16 15 15 16 16 16 15 14 15 15 15 15 16 16 16 17 17 17 17 17 16 16 16 16 16 16 15 15 15 15 15 15 15 15 15 15
18 19 19 20 19 19 18 16 16 16 15 15 16 16 15 16 15 15 15 15 16 16 16 16 16 17 17 16 16 16 16 16 16 16 15 15 15 15 15 15 15 15 15 15
17 17 19 19 19 18 18 17 16 16 15 15 15 15 15 16 16 16 16 16 16 16 16 16 16 16 16 16 16 16 16 16 16 15 15 15 15 15 15 15 15 14 14 14
17 17 18 19 19 18 18 16 16 15 15 15 15 15 16 16 15 15 15 15 15 16 16 16 16 16 16 16 16 16 16 16 16 15 15 15 15 15 15 14 14 14 14 14
17 17 18 18 18 18 17 15 14 15 15 15 15 15 15 16 15 15 14 15 15 16 16 16 16 16 16 16 16 16 16 16 15 15 15 15 14 14 14 14 14 14 14 14
16 16 17 17 17 17 16 16 14 13 14 14 14 15 16 15 15 14 14 15 16 16 16 16 16 16 16 16 16 16 16 15 15 15 15 14 14 14 14 14 14 14 14 14
15 14 15 16 16 17 17 16 14 15 14 13 13 14 16 15 14 14 15 15 16 16 16 16 16 16 16 15 15 15 15 15 15 15 14 14 14 14 14 14 13 13 13 13
15 14 14 15 16 16 16 15 14 13 12 12 13 14 15 14 14 15 15 15 15 16 16 16 15 15 15 15 15 15 15 15 15 14 14 14 14 14 14 14 13 13 13 13
15 13 14 15 15 15 15 15 14 14 12 12 13 14 15 14 14 14 15 15 15 15 15 15 15 15 15 15 15 15 15 14 14 14 14 14 14 14 14 13 13 13 13 13
14 14 14 14 15 15 15 15 14 14 13 13 14 14 14 14 14 14 14 14 14 14 15 15 15 15 14 14 14 14 14 14 14 14 13 13 13 13 13 13 13 13 13 13
12 13 14 14 14 14 14 14 14 14 14 13 13 14 14 14 14 14 14 14 14 14 14 14 14 14 14 14 14 14 14 14 13 13 13 13 13 13 13 13 13 13 12 12
11 12 13 12 13 14 14 14 14 14 14 13 13 14 13 13 13 13 14 14 14 14 14 14 14 14 14 14 14 14 14 13 13 13 13 13 13 13 13 12 12 12 12 12
11 11 10 11 13 14 14 14 14 14 13 13 13 13 12 13 14 14 14 14 14 14 14 14 14 14 14 14 14 13 13 13 13 13 12 12 12 12 12 12 12 12 12 12
10 11 10 10 12 12 13 14 13 13 13 13 12 12 12 13 13 13 14 14 14 14 14 14 14 14 14 13 13 13 13 13 13 13 12 12 12 12 11 11 12 12 12 12
9 10 10 10 12 12 13 14 14 14 13 13 12 11 12 12 11 11 13 13 13 13 13 13 13 13 13 13 13 13 13 12 12 12 12 12 12 11 11 11 11 11 11 11
10 10 9 10 11 11 12 12 13 13 12 13 13 12 12 11 11 13 13 13 13 13 13 13 13 13 13 13 12 12 12 12 12 12 11 11 11 11 11 11 11 11 11 11
10 10 9 9 10 11 12 12 12 12 13 13 13 13 12 12 12 12 12 12 12 12 12 12 12 12 12 12 12 12 12 12 11 11 11 11 11 11 10 10 11 10 10 10
9 9 9 9 10 11 12 12 13 13 12 13 12 12 12 12 12 12 12 12 12 12 12 12 12 12 12 12 12 11 11 11 11 11 10 10 10 10 10 10 10 10 10 10
8 9 8 8 9 11 12 12 12 12 12 12 12 12 12 12 12 12 12 12 11 11 11 11 11 11 11 11 11 11 11 11 10 10 10 10 10 10 10 10 9 10 10 10
8 8 8 8 9 10 12 12 12 12 12 12 12 12 12 12 11 11 11 11 11 11 11 11 10 10 10 11 10 10 10 10 10 10 10 10 10 10 9 9 9 9 9 9
7 8 8 9 10 10 11 12 12 11 11 11 11 11 11 11 11 11 11 11 11 11 10 10 10 10 10 10 10 10 10 10 10 10 9 9 9 9 9 9 9 9 9 9
Wind_Speed
3 4 1 5 5 4 3 2 3 4 2 2 2 3 4 1 1 2 2 3 3 5 3 2 3 3 3 3 3 3 3 2 3 2 2 2 1 1 2 2 3 4 4 5
5 2 5 4 3 3 3 1 3 4 1 2 1 3 3 0 2 4 4 4 4 3 1 1 3 3 3 4 4 3 3 3 3 2 2 2 2 1 1 1 3 3 3 4
3 4 1 2 2 2 2 4 4 3 2 3 1 5 3 2 1 1 1 1 2 3 3 2 3 3 3 4 5 5 4 4 3 3 3 3 3 3 2 2 2 1 2 3
2 3 1 2 0 3 3 4 3 2 1 2 1 3 5 3 2 1 1 1 1 2 1 1 2 2 3 4 4 4 4 4 3 4 5 5 3 2 1 1 0 1 2 2
2 1 1 0 2 3 3 1 1 1 2 1 2 1 7 2 3 3 2 2 2 2 1 1 2 3 2 3 3 3 3 3 3 4 5 5 3 2 1 1 2 2 2 2
3 2 1 2 1 1 2 5 6 5 4 1 2 3 5 3 4 3 2 2 2 1 1 1 1 1 1 1 2 3 4 3 3 4 4 5 4 3 3 2 1 1 1 1
5 5 3 0 2 4 5 5 4 5 4 4 3 2 6 4 4 4 3 3 3 2 1 1 0 1 1 2 3 3 4 3 3 4 4 4 4 4 4 3 2 1 0 0
1 5 4 1 2 2 1 6 5 3 3 4 3 4 6 3 2 1 2 2 1 1 1 2 2 3 3 3 3 4 5 4 4 4 4 3 4 3 3 3 2 2 2 2
2 5 4 2 1 4 3 2 4 5 1 2 5 5 6 2 2 1 1 0 1 2 2 2 2 2 3 4 4 6 6 4 4 4 3 3 3 3 3 3 2 2 1 1
5 3 5 3 4 4 4 7 5 4 2 3 5 4 4 4 4 2 2 2 3 2 2 2 2 2 3 4 3 4 5 5 4 4 4 3 3 3 3 3 2 2 1 1
4 3 5 3 1 1 3 4 4 4 4 4 3 6 5 6 5 5 5 4 4 3 3 3 3 2 2 1 2 3 4 4 4 4 3 3 3 2 2 2 3 2 2 1
3 4 2 5 4 1 3 4 5 3 3 4 3 7 5 4 4 4 5 4 4 3 3 2 2 1 1 1 2 3 3 3 3 4 4 3 3 3 2 3 3 2 2 2
4 5 1 6 4 3 1 2 3 5 4 4 4 7 4 2 3 3 4 3 2 2 2 1 0 1 1 1 2 2 3 3 3 3 3 3 3 3 3 3 3 3 3 2
5 4 5 7 6 3 3 2 3 4 4 5 8 9 8 7 5 4 3 2 2 2 1 1 1 1 1 1 2 3 3 3 3 3 3 4 4 4 4 3 3 3 3 3
4 2 4 5 5 3 5 6 5 6 7 8 8 9 10 9 6 5 3 2 1 1 1 2 2 2 1 1 1 2 2 3 3 3 3 4 3 3 3 2 2 2 3 3
3 2 1 3 2 3 5 7 6 6 6 7 7 9 8 4 1 1 2 3 3 3 3 3 2 2 2 2 2 2 2 2 3 3 4 3 2 3 3 3 2 2 2 2
2 3 1 3 5 3 5 5 5 4 4 5 7 8 3 2 3 4 4 4 4 4 3 3 3 3 3 3 3 3 2 2 3 3 3 3 3 3 4 3 3 3 3 2
5 4 3 1 2 4 6 3 3 4 4 4 5 5 4 4 4 2 2 4 4 3 3 3 3 2 2 2 2 2 2 2 2 2 2 3 3 3 3 3 3 3 2 3
4 6 4 2 2 7 6 3 3 3 4 3 4 4 3 2 3 3 2 2 4 4 4 3 3 2 1 1 2 2 1 2 2 2 3 3 3 3 3 3 3 3 2 2
4 4 4 3 3 6 6 3 2 2 4 3 2 2 2 1 1 5 4 2 2 2 2 2 1 1 1 1 1 2 2 2 3 4 4 3 3 4 4 4 3 2 3 3
2 2 3 4 5 7 6 4 1 3 5 4 2 3 2 3 5 5 3 3 2 2 1 1 1 1 2 2 2 2 2 4 4 3 2 3 3 4 4 3 3 2 2 2
5 4 4 4 4 7 3 1 3 5 4 4 4 3 3 4 4 3 3 2 2 1 0 0 1 2 2 2 3 3 4 4 2 1 2 2 2 3 3 3 3 2 3 3
5 6 5 7 7 4 2 3 3 2 4 4 3 4 3 3 4 4 3 2 2 1 1 1 1 1 2 2 3 4 4 2 2 2 2 3 2 2 2 3 4 3 3 3
4 2 3 4 6 5 5 4 4 4 5 5 4 4 3 4 4 4 3 2 2 2 2 1 1 1 2 2 2 3 2 1 2 2 2 2 2 2 2 2 3 3 3 3
5 3 2 5 7 5 4 4 4 4 3 2 3 3 3 3 4 3 3 2 2 1 2 2 2 2 3 3 3 2 2 2 2 2 2 2 2 3 2 2 2 3 4 4
5 7 6 7 6 5 6 5 4 4 4 3 3 4 4 3 3 3 3 2 2 2 2 2 2 2 3 2 3 3 2 2 3 2 2 2 2 2 2 2 1 1 2 3
Wind_Direction
45 72 208 228 203 191 182 211 274 274 252 144 211 274 300 311 165 206 228 232 236 238 246 191 164 153 145 138 143 152 146 134 119 107 106 95 80 49 38 50 81 107 126 132
39 292 244 220 185 171 171 211 274 297 337 159 232 289 298 311 207 209 213 225 231 244 264 182 163 159 166 167 165 162 165 156 158 153 141 128 115 89 66 40 60 76 112 134
190 256 238 131 126 140 207 199 222 243 358 34 39 330 321 319 360 18 242 239 240 221 213 207 182 178 170 178 181 177 179 167 157 131 105 84 64 46 32 25 24 26 99 132
257 291 84 80 238 158 251 240 211 205 98 293 87 292 290 291 326 327 292 299 290 299 262 191 190 185 191 200 189 173 169 159 147 137 134 130 130 145 222 234 242 28 72 104
278 321 74 189 259 184 225 1 109 123 154 3 9 192 290 327 286 275 264 252 248 258 244 215 211 209 199 183 172 172 158 152 149 147 149 142 130 143 106 74 73 50 39 75
270 298 198 225 299 115 107 63 56 49 72 342 269 190 283 261 243 262 249 237 238 240 243 246 245 182 156 146 150 153 151 154 154 148 148 148 145 136 118 105 96 49 25 26
337 332 333 68 33 24 69 76 28 3 10 266 280 210 254 258 240 220 223 226 225 213 200 220 221 215 203 174 168 159 156 160 163 156 159 163 161 158 163 170 173 160 109 5
356 303 310 344 167 205 133 134 151 208 240 284 323 250 260 278 292 209 202 205 206 218 218 235 232 215 213 204 187 169 168 169 164 167 174 173 166 164 176 184 177 183 197 213
178 268 296 295 228 140 130 137 157 139 160 282 287 290 303 355 18 38 51 51 249 241 230 235 257 236 214 207 202 185 173 164 165 169 164 167 169 171 180 186 175 179 201 202
161 253 298 316 55 40 121 138 98 115 160 269 295 287 266 281 284 293 271 248 256 259 252 239 241 248 232 211 204 181 169 167 167 164 172 174 183 189 182 166 168 180 198 184
141 175 306 0 100 203 81 95 106 121 153 171 263 274 240 234 243 242 246 242 235 236 237 235 238 231 217 197 177 173 168 162 166 170 172 167 180 184 170 173 192 189 184 175
132 129 261 276 276 231 158 156 143 154 219 182 200 265 276 245 250 242 254 254 236 228 228 231 229 170 162 189 178 170 170 177 188 184 175 175 177 163 171 193 205 186 177 169
130 115 38 340 342 10 79 152 150 135 134 170 195 261 300 329 306 274 262 263 252 241 238 253 161 190 221 225 201 183 183 191 191 178 177 178 179 176 191 195 192 181 176 167
119 123 174 208 228 233 263 238 173 147 175 214 226 252 287 293 287 282 266 242 248 241 222 206 231 245 250 233 206 196 201 195 186 175 179 186 196 195 198 186 172 173 171 168
102 166 229 242 252 231 238 251 222 207 208 212 241 245 262 262 260 261 236 203 197 234 231 222 223 240 264 275 247 207 208 193 181 174 190 204 201 184 178 173 173 168 167 173
83 156 238 285 277 258 265 265 243 232 226 229 251 263 263 262 248 252 226 200 207 227 234 245 250 238 249 251 242 227 221 203 180 187 213 212 184 173 173 180 173 164 165 166
126 135 124 269 307 343 279 251 222 221 217 207 233 253 284 286 245 226 218 213 217 226 230 235 239 226 231 240 227 216 220 193 176 191 205 199 192 192 188 188 170 178 186 174
151 136 146 249 3 253 247 250 211 222 253 244 253 273 262 251 252 251 220 214 229 231 230 238 244 238 234 246 236 211 173 160 166 177 191 188 187 197 191 178 184 200 194 191
159 147 143 152 236 274 286 263 205 211 272 259 251 278 296 332 9 329 278 238 230 227 228 229 232 230 212 240 219 173 166 168 174 198 197 193 184 188 185 185 197 200 192 208
81 111 135 153 201 244 255 278 277 145 274 274 216 250 286 51 336 275 288 285 280 268 243 239 224 182 194 245 192 166 185 191 214 223 215 202 192 192 197 202 203 201 199 215
85 102 165 189 221 259 266 293 78 171 258 286 260 249 234 228 236 256 279 293 279 268 265 261 172 208 237 231 167 182 211 226 236 234 218 200 199 205 205 204 201 195 196 194
191 185 194 170 203 253 286 99 176 232 282 290 282 263 251 265 276 275 276 274 270 269 296 225 204 253 252 208 175 199 238 247 233 192 200 208 211 214 204 192 197 187 179 184
205 195 193 196 218 250 265 237 267 263 277 282 279 276 253 267 275 276 273 267 263 239 224 232 213 257 277 228 196 216 247 233 184 176 212 221 215 212 194 188 191 184 182 191
266 183 182 254 262 262 269 274 285 271 268 276 274 267 251 252 254 262 259 254 255 263 250 239 211 252 284 271 242 237 245 183 167 194 233 235 214 222 207 199 195 192 200 205
232 188 209 258 275 295 282 267 283 297 303 308 312 300 272 250 261 260 261 258 240 250 256 230 216 237 263 268 266 266 242 180 185 208 232 236 214 208 207 214 215 213 217 211
207 196 199 235 237 231 263 273 282 290 291 287 306 315 305 266 257 267 267 265 241 229 241 233 240 247 267 276 283 286 252 193 185 212 235 235 215 207 200 205 266 293 252 260
Height
1508 1514 1518 1516 1516 1517 1519 1523 1525 1520 1514 1517 1521 1520 1517 1516 1516 1516 1517 1518 1518 1519 1521 1522 1523 1524 1525 1527 1528 1528 1529 1530 1531 1531 1532 1533 1533 1534 1535 1536 1536 1536 1536 1537
1514 1517 1511 1510 1512 1515 1518 1523 1523 1519 1514 1517 1521 1521 1517 1516 1516 1516 1516 1517 1517 1518 1519 1520 1522 1523 1524 1525 1526 1527 1528 1529 1530 1531 1532 1533 1534 1535 1535 1536 1536 1536 1537 1537
1515 1513 1508 1510 1513 1516 1518 1521 1521 1521 1517 1517 1520 1523 1519 1516 1515 1516 1516 1516 1516 1517 1518 1519 1520 1521 1523 1524 1525 1526 1527 1528 1529 1530 1531 1532 1533 1534 1535 1535 1536 1536 1537 1537
1512 1509 1509 1511 1513 1514 1521 1513 1515 1517 1524 1529 1525 1537 1523 1518 1517 1516 1515 1516 1516 1516 1517 1518 1519 1520 1521 1522 1524 1525 1526 1527 1528 1529 1530 1531 1532 1533 1534 1535 1535 1536 1537 1537
1513 1510 1510 1513 1512 1511 1514 1511 1514 1518 1523 1530 1529 1535 1530 1520 1519 1516 1515 1515 1515 1516 1516 1517 1518 1519 1520 1521 1522 1524 1525 1526 1527 1528 1529 1530 1531 1532 1533 1534 1535 1536 1536 1537
1511 1508 1509 1509 1508 1509 1511 1515 1520 1526 1531 1539 1532 1536 1533 1524 1518 1515 1514 1514 1514 1514 1515 1516 1517 1518 1519 1520 1521 1523 1524 1525 1526 1527 1528 1529 1530 1531 1532 1533 1534 1535 1536 1536
1516 1511 1508 1508 1510 1511 1514 1526 1540 1542 1547 1544 1532 1533 1530 1516 1513 1512 1512 1512 1513 1514 1514 1515 1515 1516 1517 1518 1519 1521 1522 1523 1525 1526 1527 1528 1529 1530 1531 1532 1533 1533 1534 1535
1526 1525 1512 1509 1511 1515 1517 1524 1541 1548 1550 1544 1533 1534 1522 1512 1510 1510 1511 1511 1512 1512 1513 1513 1514 1515 1516 1517 1518 1519 1520 1522 1523 1524 1526 1527 1528 1529 1530 1531 1532 1532 1533 1533
1526 1525 1511 1508 1508 1511 1518 1524 1525 1538 1541 1546 1539 1529 1518 1511 1510 1510 1510 1510 1510 1511 1512 1512 1513 1513 1514 1515 1517 1518 1519 1520 1522 1523 1525 1526 1527 1528 1529 1530 1530 1531 1532 1532
1517 1524 1514 1510 1509 1511 1514 1520 1531 1537 1545 1549 1541 1534 1527 1515 1512 1510 1510 1509 1509 1510 1511 1511 1511 1512 1513 1514 1515 1516 1518 1519 1520 1522 1523 1524 1525 1526 1527 1528 1528 1529 1530 1531
1515 1523 1520 1515 1516 1517 1519 1523 1529 1537 1539 1547 1549 1537 1514 1512 1510 1510 1508 1508 1508 1509 1509 1509 1510 1510 1511 1512 1513 1514 1516 1517 1518 1520 1521 1522 1523 1524 1525 1526 1526 1527 1528 1529
1516 1524 1528 1521 1514 1512 1514 1519 1527 1536 1539 1542 1545 1536 1508 1508 1507 1507 1507 1506 1506 1507 1508 1508 1509 1509 1510 1510 1511 1512 1513 1515 1516 1517 1519 1520 1521 1522 1523 1523 1524 1525 1526 1527
1515 1524 1533 1529 1524 1518 1517 1518 1521 1528 1536 1543 1543 1531 1507 1506 1506 1506 1505 1505 1505 1506 1506 1507 1507 1508 1508 1509 1509 1510 1511 1512 1514 1515 1516 1517 1518 1519 1520 1521 1522 1523 1524 1524
1512 1523 1529 1531 1526 1520 1520 1518 1520 1525 1535 1537 1532 1522 1510 1506 1505 1504 1504 1504 1504 1505 1505 1505 1506 1506 1506 1506 1507 1507 1508 1509 1511 1511 1513 1514 1515 1516 1518 1518 1519 1520 1521 1522
1512 1522 1521 1520 1517 1517 1517 1516 1517 1521 1522 1526 1520 1516 1508 1504 1503 1502 1502 1502 1503 1503 1504 1504 1504 1505 1505 1505 1505 1505 1505 1506 1507 1508 1510 1511 1512 1514 1515 1516 1517 1518 1518 1519
1515 1520 1520 1520 1516 1516 1516 1513 1513 1514 1514 1515 1513 1511 1502 1501 1501 1501 1501 1501 1501 1501 1502 1503 1503 1503 1503 1503 1503 1503 1503 1504 1504 1505 1507 1508 1510 1511 1512 1513 1514 1515 1516 1516
1517 1520 1524 1526 1520 1516 1519 1511 1510 1509 1508 1509 1510 1505 1500 1500 1499 1499 1499 1499 1499 1500 1501 1501 1501 1501 1502 1502 1502 1501 1501 1502 1502 1503 1504 1505 1507 1508 1509 1511 1512 1513 1513 1514
1516 1521 1527 1528 1524 1525 1514 1504 1504 1505 1504 1504 1502 1500 1499 1498 1498 1498 1498 1498 1498 1498 1499 1500 1500 1500 1500 1500 1500 1500 1500 1500 1500 1501 1502 1503 1504 1505 1507 1508 1509 1510 1511 1511
1512 1518 1527 1530 1529 1522 1510 1503 1503 1504 1504 1501 1500 1499 1498 1497 1497 1497 1497 1497 1497 1497 1498 1498 1498 1498 1498 1498 1498 1498 1498 1498 1498 1498 1499 1500 1501 1502 1503 1504 1506 1507 1508 1508
1514 1516 1524 1529 1526 1524 1509 1501 1499 1502 1505 1499 1498 1497 1497 1496 1500 1497 1495 1495 1495 1496 1496 1496 1496 1496 1496 1497 1497 1496 1496 1496 1496 1496 1497 1498 1499 1500 1500 1502 1503 1504 1505 1505
1517 1521 1524 1526 1525 1516 1504 1500 1500 1509 1506 1497 1496 1495 1495 1496 1496 1494 1493 1493 1493 1493 1493 1493 1493 1493 1494 1494 1494 1494 1494 1493 1494 1494 1495 1495 1496 1497 1498 1499 1500 1501 1501 1502
1516 1519 1522 1524 1524 1517 1500 1500 1503 1502 1497 1495 1494 1493 1493 1493 1492 1491 1491 1491 1491 1490 1491 1491 1491 1491 1491 1491 1491 1491 1491 1492 1492 1492 1492 1492 1493 1494 1494 1495 1496 1497 1498 1498
1512 1511 1512 1513 1510 1501 1499 1499 1498 1497 1495 1493 1492 1491 1491 1490 1489 1489 1488 1488 1488 1488 1489 1489 1488 1488 1488 1489 1489 1488 1489 1489 1489 1489 1489 1489 1490 1490 1491 1491 1492 1493 1493 1494
1507 1506 1507 1506 1500 1497 1496 1496 1495 1494 1493 1491 1491 1489 1489 1488 1487 1486 1486 1485 1485 1486 1486 1486 1486 1485 1486 1486 1486 1486 1486 1486 1486 1486 1486 1486 1487 1487 1487 1488 1488 1489 1489 1490
1503 1503 1504 1503 1497 1495 1493 1493 1492 1491 1490 1489 1488 1487 1486 1485 1484 1483 1483 1482 1482 1483 1483 1483 1483 1483 1483 1483 1483 1483 1484 1484 1483 1483 1483 1483 1483 1483 1484 1484 1484 1484 1485 1486
1498 1499 1500 1498 1493 1493 1491 1490 1489 1488 1487 1486 1485 1484 1483 1483 1481 1481 1480 1480 1480 1480 1480 1481 1481 1480 1480 1480 1480 1480 1480 1480 1480 1479 1479 1479 1479 1479 1480 1480 1480 1481 1482 1482